[[{"header":{"parameterUnit":"m.s-1","parameterCategory":1,"la1":30.2991,"la2":30.254,"lo1":-89.0895,"lo2":-89.0444,"dy":0.0017,"dx":0.0017,"nx":28,"ny":28,"refTime":"2025-07-09T03:00:00:Z","depth":0,"parameterNumber":2,"parameterNumberName":"U-component_of_WINDS"},"data":[0,0,0,0,0,0,0,0,0,0,0,0,0,0,0,0,0,0,0,0,0,0,0,0,0,0,0,0,0,0,0,0,0,0,0,0,0,0,0,0,0,0,0,0,0,0,0,0,0,0,0,0,0,0,0,0,0,0,3.4786,3.4788,0,3.5007,3.501,3.5012,3.4983,3.4979,3.4976,3.4972,3.5209,3.5218,3.5228,0,0,0,0,0,0,0,0,0,0,0,0,0,3.4343,3.4351,3.4785,3.4788,3.4791,3.5007,3.501,3.5013,3.4984,3.4979,3.4975,3.4971,3.5205,3.5217,3.5228,0,0,0,0,0,0,0,0,0,0,0,0,0,3.4547,3.4354,3.4785,3.4802,3.4806,3.5006,3.501,3.5014,3.4985,3.4979,3.4974,3.4969,3.5202,3.5216,3.523,3.543,0,0,3.5275,3.5281,0,0,0,0,0,0,0,0,3.4536,3.4564,3.4797,3.4801,3.4806,3.4962,3.4941,3.5154,3.4986,3.4917,3.4972,3.4966,3.5132,3.5151,3.5205,3.5441,3.5451,3.5276,3.5285,3.5291,3.5295,0,0,0,0,0,0,0,3.4522,3.4554,3.4873,3.48,3.4806,3.4801,3.4824,3.4981,3.5053,3.4923,3.4921,3.4947,3.5133,3.5191,3.5211,3.5455,3.5275,3.5288,3.5297,3.5303,3.5865,3.5871,0,0,0,0,0,0,3.4502,3.4542,3.4866,3.488,3.4654,3.4813,3.4839,3.4917,3.5051,3.5066,3.4952,3.4945,3.5169,3.5194,3.5219,3.5461,3.5291,3.5305,3.5313,3.5859,3.5866,3.5873,0,0,0,0,0,0,3.4493,3.4531,3.4857,3.4711,3.4752,3.4827,3.4915,3.4925,3.4983,3.5073,3.5086,3.4998,3.5166,3.5199,3.5377,3.5469,3.5311,3.5324,3.5851,3.5861,3.587,3.5948,0,0,0,0,0,0,3.448,3.4528,3.4603,3.4713,3.476,3.501,3.4921,3.4933,3.5007,3.5001,3.512,3.5134,3.5164,3.5355,3.5391,3.5486,3.5336,3.5844,3.5856,3.5867,3.5937,3.5958,3.5977,0,0,0,0,0,3.4464,3.4619,3.4607,3.4647,3.4855,3.5015,3.5042,3.5071,3.5015,3.5092,3.5149,3.513,3.5453,3.5374,3.5414,3.5515,3.5838,3.5852,3.5866,3.5928,3.5954,3.5976,0,0,0,0,0,0,3.4522,3.4634,3.4622,3.4816,3.4906,3.501,3.5108,3.5098,3.5208,3.5198,3.5231,3.5259,3.5439,3.5495,3.5405,3.5715,3.5638,3.5661,3.5672,3.5697,3.5716,3.57,3.5348,0,0,0,0,0,3.4557,3.4675,3.4767,3.4929,3.4974,3.5034,3.5105,3.5118,3.5214,3.5253,3.5323,3.5419,3.5542,3.5623,3.5741,3.5945,3.5971,3.6034,3.6053,3.6069,3.6089,3.62,3.6229,3.5919,3.5918,3.5918,0,0,3.4631,3.4707,3.478,3.4943,3.5014,3.5137,3.5066,3.52,3.5293,3.5275,3.5446,3.5501,3.5611,3.5802,3.589,3.5854,3.618,3.6087,3.6099,3.611,3.6217,3.6247,3.6273,3.5928,3.5926,3.5925,0,0,3.4829,3.4898,3.504,3.5112,3.5219,3.5257,3.5291,3.5396,3.5431,3.5603,3.5591,3.5703,3.5914,3.5991,3.6059,3.6283,3.627,3.6321,3.6425,3.6533,3.6557,3.6579,3.6659,3.6688,3.634,3.634,3.634,0,3.4909,3.5092,3.5115,3.525,3.5322,3.5307,3.5452,3.5521,3.5663,3.5715,3.5671,3.5934,3.6007,3.6216,3.627,3.6325,3.6366,3.6308,3.6551,3.6574,3.6594,3.6671,3.6701,3.6346,3.6345,3.6345,3.6344,0,3.5184,3.5311,3.5414,3.5546,3.563,3.577,3.5816,3.5898,3.5904,3.5947,3.6122,3.6208,3.6343,3.6393,3.6402,3.6604,3.6578,3.6543,3.6467,3.6629,3.6702,3.6731,3.6354,3.6352,3.635,3.6349,0,0,3.5428,3.5569,3.5606,3.5666,3.5782,3.5882,3.602,3.6148,3.6218,3.6316,3.6434,3.6611,3.6578,3.6655,3.6672,3.6767,3.6939,3.672,3.6723,3.6758,3.7166,3.7192,3.7226,3.693,3.6936,3.694,3.7157,0,3.5637,3.5879,3.5903,3.612,3.6238,3.6224,3.6345,3.643,3.6474,3.6582,3.663,3.6755,3.6703,3.6748,3.6841,3.6898,3.7022,3.6883,3.7042,3.7048,3.7016,3.7264,3.7293,3.7493,3.7186,3.7191,3.7194,0,3.5915,3.6016,3.6244,3.6341,3.6392,3.65,3.6618,3.6721,3.6817,3.6842,3.6926,3.693,3.7074,3.6991,3.7191,3.7096,3.7163,3.7201,3.7209,3.7226,3.7131,3.7288,3.7558,3.7588,3.7239,3.7236,3.7232,0,3.6069,3.6263,3.6424,3.6476,3.6593,3.6669,3.6723,3.6813,3.6888,3.6992,3.7041,3.7162,3.7229,3.7324,3.7361,3.7297,3.756,3.7479,3.7586,3.7585,3.7643,3.7639,3.7928,3.7685,3.7685,3.7684,3.7683,0,3.6301,3.6441,3.6495,3.6594,3.6751,3.6777,3.6932,3.6982,3.7063,3.7173,3.7169,3.7273,3.7315,3.7427,3.7457,3.7619,3.7649,3.7675,3.7681,3.7676,3.7672,3.772,3.7708,3.7692,3.769,3.7689,3.7687,0,3.6501,3.6542,3.6717,3.6812,3.6839,3.6951,3.7034,3.7131,3.7171,3.731,3.7345,3.741,3.754,3.7586,3.7746,3.7766,3.7954,3.7948,3.792,3.7922,3.8026,3.8015,3.8356,3.8402,3.8128,3.8131,3.8133,0,3.6647,3.6753,3.6859,3.693,3.6985,3.7101,3.7176,3.7206,3.7285,3.7401,3.7485,3.7613,3.7718,3.7928,3.7991,3.8113,3.8111,3.8222,3.813,3.812,3.8113,3.8106,3.8117,3.8239,3.8242,3.8245,3.8246,0,3.6901,3.6915,3.7021,3.7135,3.7223,3.7315,3.7404,3.7464,3.7507,3.7596,3.7727,3.7808,3.7969,3.8097,3.8221,3.8279,3.8272,3.8274,3.8306,3.8301,3.8281,3.8293,3.7967,3.8267,3.8265,3.8263,3.8262,3.8262,3.7079,3.7172,3.726,3.7379,3.7447,3.753,3.7625,3.7675,3.7784,3.7915,3.7926,3.8068,3.8161,3.8326,3.8389,3.8502,3.8472,3.8517,3.8529,3.854,3.8548,3.8261,3.8525,3.8525,3.8524,3.8524,3.8523,0,3.7333,3.7387,3.7496,3.7618,3.7711,3.7691,3.7788,3.7868,3.7992,3.8078,3.8179,3.833,3.8454,3.8525,3.8649,3.8726,3.8725,3.8758,3.8753,3.8766,3.8568,3.8528,3.8756,3.8756,3.8756,3.8756,3.8756,3.8756,3.7476,3.7632,3.7657,3.7848,3.7903,3.8038,3.8095,3.8172,3.824,3.8407,3.8509,3.8552,3.8633,3.8763,3.8876,3.8894,3.894,3.8976,3.8991,3.8804,3.8781,3.8758,3.8721,3.8985,3.8986,3.9181,3.9183,3.9184]},{"header":{"parameterUnit":"m.s-1","parameterCategory":1,"la1":30.2991,"la2":30.254,"lo1":-89.0895,"lo2":-89.0444,"dy":0.0017,"dx":0.0017,"nx":28,"ny":28,"refTime":"2025-07-09T03:00:00:Z","depth":0,"parameterNumber":3,"parameterNumberName":"V-component_of_WINDS"},"data":[0,0,0,0,0,0,0,0,0,0,0,0,0,0,0,0,0,0,0,0,0,0,0,0,0,0,0,0,0,0,0,0,0,0,0,0,0,0,0,0,0,0,0,0,0,0,0,0,0,0,0,0,0,0,0,0,0,0,2.8033,2.8034,0,2.8131,2.8132,2.8133,2.8101,2.8099,2.8097,2.8095,2.8195,2.82,2.8205,0,0,0,0,0,0,0,0,0,0,0,0,0,2.7819,2.7823,2.8033,2.8034,2.8035,2.8131,2.8132,2.8133,2.8101,2.8099,2.8096,2.8094,2.8194,2.8199,2.8205,0,0,0,0,0,0,0,0,0,0,0,0,0,2.7914,2.7824,2.8033,2.8031,2.8032,2.813,2.8132,2.8134,2.8102,2.8099,2.8096,2.8093,2.8192,2.8199,2.8206,2.8312,0,0,2.8227,2.823,0,0,0,0,0,0,0,0,2.7908,2.7922,2.803,2.8031,2.8032,2.81,2.8093,2.8194,2.8103,2.8075,2.8095,2.8091,2.8166,2.8175,2.8201,2.8317,2.8321,2.8228,2.8232,2.8235,2.8237,0,0,0,0,0,0,0,2.7902,2.7917,2.8072,2.8032,2.8033,2.8025,2.8035,2.8112,2.8138,2.8077,2.8075,2.8087,2.8166,2.8194,2.8203,2.8323,2.8227,2.8234,2.8238,2.8241,2.8531,2.8534,0,0,0,0,0,0,2.7894,2.7912,2.8069,2.8075,2.7961,2.8032,2.8043,2.8082,2.8137,2.8142,2.809,2.8086,2.8184,2.8195,2.8206,2.8334,2.8235,2.8241,2.8245,2.8527,2.8532,2.8535,0,0,0,0,0,0,2.789,2.7909,2.8065,2.7993,2.8012,2.8039,2.8083,2.8085,2.8113,2.8146,2.815,2.8114,2.8182,2.8196,2.8286,2.8337,2.8245,2.8251,2.8523,2.8529,2.8534,2.8592,0,0,0,0,0,0,2.7884,2.7907,2.7948,2.7994,2.8016,2.8143,2.8086,2.809,2.8125,2.812,2.8169,2.8174,2.818,2.8276,2.8293,2.8345,2.8256,2.8519,2.8526,2.8532,2.8585,2.8598,2.8609,0,0,0,0,0,2.7876,2.7961,2.795,2.7969,2.8067,2.8146,2.8159,2.8164,2.8129,2.817,2.8192,2.8173,2.8329,2.8285,2.8304,2.836,2.8516,2.8524,2.8531,2.858,2.8596,2.8609,0,0,0,0,0,0,2.792,2.7967,2.7956,2.8057,2.8098,2.814,2.8193,2.818,2.8232,2.8225,2.8229,2.8241,2.8333,2.8355,2.8305,2.8465,2.8417,2.8429,2.8447,2.8463,2.8475,2.8467,2.8262,0,0,0,0,0,2.7942,2.8002,2.8039,2.8125,2.8146,2.8166,2.82,2.8201,2.8243,2.826,2.8288,2.833,2.8388,2.8427,2.8482,2.8588,2.8598,2.8635,2.8647,2.8657,2.8668,2.8725,2.8742,2.8562,2.8561,2.8561,0,0,2.7987,2.802,2.8057,2.8135,2.8166,2.8228,2.8181,2.8248,2.8294,2.827,2.8357,2.8378,2.8425,2.8524,2.8568,2.8545,2.872,2.8667,2.8675,2.868,2.8735,2.8752,2.8768,2.8567,2.8566,2.8565,0,0,2.8101,2.8131,2.8206,2.8239,2.8287,2.83,2.8318,2.8363,2.8376,2.8463,2.8446,2.8501,2.8601,2.8635,2.8666,2.8792,2.8777,2.881,2.8873,2.893,2.8944,2.8956,2.9002,2.9018,2.8821,2.8821,2.8821,0,2.8151,2.8243,2.8247,2.8316,2.835,2.8331,2.8407,2.8438,2.8503,2.8527,2.85,2.8626,2.8656,2.8762,2.8793,2.8818,2.8839,2.8805,2.8941,2.8954,2.8966,2.9009,2.9026,2.8825,2.8824,2.8824,2.8823,0,2.8302,2.8367,2.8422,2.8484,2.8524,2.8597,2.8611,2.8652,2.8648,2.8664,2.8752,2.8788,2.885,2.8875,2.8873,2.8981,2.8965,2.894,2.8892,2.8987,2.9028,2.9044,2.883,2.8829,2.8827,2.8826,0,0,2.8447,2.851,2.853,2.8558,2.861,2.866,2.8731,2.8792,2.8827,2.8871,2.8931,2.9017,2.8994,2.9028,2.9029,2.9079,2.9176,2.9047,2.9048,2.907,2.9298,2.9317,2.9336,2.9166,2.9169,2.9172,2.9294,0,2.8565,2.869,2.8695,2.8809,2.8869,2.8852,2.8914,2.8952,2.8968,2.9021,2.9039,2.91,2.9065,2.9085,2.9133,2.9154,2.9222,2.9146,2.9222,2.9225,2.9211,2.9357,2.9377,2.9491,2.931,2.9312,2.9314,0,2.872,2.8769,2.8889,2.8932,2.8958,2.9013,2.9069,2.912,2.9163,2.9172,2.921,2.9204,2.9277,2.9226,2.9327,2.9274,2.9306,2.9321,2.9325,2.9333,2.9276,2.9369,2.9527,2.9544,2.9339,2.9337,2.9336,0,2.8813,2.891,2.8994,2.9019,2.9071,2.9111,2.9134,2.9174,2.921,2.9259,2.9283,2.934,2.9371,2.9415,2.9425,2.9387,2.9525,2.9475,2.9534,2.9534,2.9565,2.9563,2.973,2.9585,2.9584,2.9584,2.9584,0,2.8945,2.9019,2.9037,2.9089,2.9171,2.9176,2.9258,2.9279,2.9314,2.937,2.9358,2.9411,2.942,2.9474,2.9482,2.9564,2.9578,2.9587,2.9588,2.9588,2.9587,2.9609,2.9602,2.9589,2.9588,2.9587,2.9586,0,2.9063,2.9078,2.9169,2.9211,2.9223,2.9282,2.9318,2.9368,2.9383,2.9453,2.947,2.9494,2.9557,2.9571,2.9646,2.9651,2.9749,2.9742,2.9734,2.9734,2.9792,2.9787,2.998,3.0006,2.9843,2.9845,2.9846,0,2.9146,2.9203,2.9251,2.9287,2.9313,2.9372,2.9408,2.9415,2.9454,2.9508,2.9551,2.9613,2.9663,2.9766,2.9789,2.9847,2.9842,2.9906,2.985,2.9849,2.9843,2.984,2.9845,2.9916,2.9918,2.9919,2.9921,0,2.9292,2.9296,2.935,2.9407,2.9451,2.9496,2.9538,2.9569,2.9581,2.9626,2.969,2.9729,2.9806,2.9868,2.9926,2.995,2.9938,2.9938,2.9955,2.9955,2.9949,2.9953,2.9763,2.9933,2.9932,2.9931,2.993,2.993,2.9395,2.9445,2.9486,2.9546,2.9579,2.9619,2.9668,2.9689,2.9743,2.9806,2.9807,2.9878,2.9919,2.9995,3.0023,3.0079,3.0059,3.0083,3.0089,3.0095,3.0101,2.994,3.0089,3.0089,3.0088,3.0088,3.0088,0,2.954,2.9566,2.9621,2.9681,2.9729,2.9713,2.9759,2.98,2.9862,2.9902,2.9952,3.0026,3.0086,3.0114,3.0174,3.0213,3.0209,3.0228,3.0225,3.0231,3.0115,3.0095,3.023,3.023,3.023,3.023,3.023,3.023,2.9621,2.9704,2.9714,2.9813,2.9838,2.9907,2.9935,2.9972,3.0004,3.0088,3.0138,3.0156,3.0191,3.0253,3.0307,3.0314,3.0336,3.0359,3.0363,3.0254,3.0239,3.0226,3.0206,3.0363,3.0364,3.0474,3.0475,3.0476]}]]